CW5917 Weather Reports


Display with metric or nautical units.
time (UTC)temp
F
wind
direction
speed
MPH
gust
MPH
rain 1hr
in
rain 24hr
in
rain mn
in
humidity
%
barometer
mb
20240620215545 77 74 4.0 8.0 0.00 0.24 0.24 81 1025.7
20240620215021 77 65 5.0 8.0 0.00 0.24 0.24 82 1025.8
20240620214548 77 52 4.0 8.0 0.00 0.24 0.24 82 1025.8
20240620214038 77 360 5.0 8.0 0.00 0.24 0.24 83 1025.8
20240620213533 77 49 4.0 8.0 0.00 0.24 0.24 84 1025.7
20240620213031 77 34 4.0 8.0 0.00 0.24 0.24 83 1025.8
20240620212537 76 30 3.0 8.0 0.00 0.24 0.24 85 1025.9
20240620212022 76 28 5.0 9.0 0.00 0.24 0.24 83 1026.0
20240620211515 76 30 5.0 9.0 0.00 0.24 0.24 84 1025.9
20240620211030 76 44 4.0 10.0 0.00 0.24 0.24 85 1025.9
20240620210535 75 10 5.0 10.0 0.00 0.24 0.24 85 1025.9
20240620210017 75 65 4.0 8.0 0.00 0.28 0.24 85 1025.9
20240620205534 76 17 5.0 9.0 0.00 0.28 0.24 84 1026.0
20240620205021 75 31 6.0 10.0 0.00 0.28 0.24 86 1026.0
20240620204538 75 32 6.0 10.0 0.00 0.28 0.24 86 1026.2
20240620204032 74 26 3.0 10.0 0.00 0.28 0.24 88 1026.1
20240620203549 74 43 4.0 9.0 0.00 0.28 0.24 88 1026.2
20240620203026 74 41 5.0 10.0 0.00 0.28 0.24 88 1026.2
20240620202522 74 338 6.0 10.0 0.00 0.28 0.24 88 1026.3
20240620202052 74 41 4.0 9.0 0.00 0.28 0.24 90 1026.2
20240620201522 72 24 5.0 9.0 0.00 0.28 0.24 90 1026.5
20240620201018 72 360 5.0 9.0 0.00 0.28 0.24 89 1026.4
20240620200516 72 51 5.0 10.0 0.00 0.28 0.24 90 1026.5
20240620200026 72 57 4.0 10.0 0.00 0.59 0.24 89 1026.4
20240620195519 72 55 5.0 10.0 0.00 0.59 0.24 90 1026.5
20240620195034 71 52 5.0 10.0 0.00 0.59 0.24 91 1026.6
20240620194525 71 36 4.0 9.0 0.00 0.59 0.24 91 1026.7
20240620194023 71 54 4.0 9.0 0.00 0.59 0.24 91 1026.8
20240620193521 71 49 4.0 11.0 0.00 0.59 0.24 91 1026.9
20240620193026 71 36 3.0 11.0 0.00 0.59 0.24 91 1026.8
20240620192520 71 47 4.0 9.0 0.00 0.59 0.24 91 1026.8
20240620192015 71 67 3.0 6.0 0.00 0.59 0.24 91 1026.8
20240620191526 70 57 4.0 6.0 0.00 0.59 0.24 91 1026.9
20240620191020 70 74 4.0 10.0 0.00 0.59 0.24 92 1026.9
20240620190528 70 355 3.0 12.0 0.00 0.59 0.24 93 1026.9
20240620190021 69 47 6.0 12.0 0.00 0.59 0.24 92 1026.9
20240620185519 69 49 6.0 11.0 0.00 0.59 0.24 92 1027.0
20240620185033 70 46 7.0 11.0 0.00 0.59 0.24 92 1027.0
20240620184521 70 343 3.0 8.0 0.00 0.59 0.24 93 1026.9
20240620184020 70 40 3.0 10.0 0.00 0.59 0.24 93 1026.9
20240620183531 70 15 5.0 10.0 0.00 0.59 0.24 93 1026.9
20240620183033 70 74 6.0 10.0 0.00 0.59 0.24 93 1026.9
20240620182532 70 332 6.0 11.0 0.00 0.59 0.24 94 1027.0
20240620182016 70 34 6.0 11.0 0.00 0.59 0.24 94 1027.1
20240620181517 70 27 7.0 11.0 0.00 0.59 0.24 94 1027.1
20240620181033 70 63 6.0 11.0 0.00 0.59 0.24 94 1027.1
20240620180521 70 59 6.0 11.0 0.00 0.59 0.24 94 1027.1
20240620180018 70 34 4.0 8.0 0.00 0.59 0.24 94 1027.1
20240620175533 70 5 4.0 8.0 0.00 0.59 0.24 94 1027.1
20240620175031 70 5 4.0 11.0 0.00 0.59 0.24 94 1027.1
20240620174521 70 43 5.0 11.0 0.00 0.59 0.24 94 1027.0
20240620174018 71 23 4.0 7.0 0.00 0.59 0.24 94 1026.9
20240620173531 71 63 3.0 7.0 0.00 0.59 0.24 94 1026.9
20240620173021 71 36 4.0 9.0 0.00 0.59 0.24 95 1026.8
20240620172519 71 80 4.0 9.0 0.00 0.59 0.24 95 1026.7
20240620172034 70 46 4.0 9.0 0.00 0.59 0.24 95 1026.7
20240620171516 71 70 5.0 10.0 0.01 0.59 0.24 94 1026.7
20240620171022 71 41 4.0 9.0 0.01 0.59 0.24 95 1026.7
20240620170535 71 69 3.0 7.0 0.01 0.59 0.24 95 1026.7
20240620170026 71 59 4.0 7.0 0.01 0.59 0.24 95 1026.9
20240620165543 70 60 4.0 9.0 0.01 0.59 0.24 95 1026.9
20240620165018 70 65 4.0 10.0 0.01 0.59 0.24 94 1027.0
20240620164521 70 38 6.0 10.0 0.01 0.59 0.24 94 1027.1
20240620164016 70 28 3.0 10.0 0.01 0.59 0.24 93 1027.2
20240620163528 71 46 5.0 10.0 0.01 0.59 0.24 93 1027.2
20240620163051 72 78 6.0 9.0 0.01 0.59 0.24 93 1027.1
20240620162546 72 83 3.0 4.0 0.01 0.59 0.24 93 1027.1
20240620162022 72 54 2.0 4.0 0.01 0.59 0.24 93 1027.1
20240620161521 72 54 3.0 4.0 0.00 0.58 0.23 92 1027.1
20240620161027 72 78 2.0 4.0 0.00 0.58 0.23 93 1027.2
20240620160528 72 46 2.0 4.0 0.00 0.58 0.23 93 1027.2
20240620160034 72 108 2.0 4.0 0.00 0.58 0.23 92 1027.2
20240620155531 72 96 1.0 4.0 0.00 0.58 0.23 93 1027.3
20240620155022 72 67 2.0 4.0 0.00 0.58 0.23 93 1027.2
20240620154528 72 97 2.0 4.0 0.00 0.58 0.23 93 1027.2
20240620154031 72 80 1.0 2.0 0.00 0.58 0.23 93 1027.2
20240620153528 72 80 0.0 3.0 0.00 0.58 0.23 94 1027.2
20240620153030 71 80 1.0 3.0 0.00 0.58 0.23 94 1027.1
20240620152524 71 80 1.0 4.0 0.00 0.58 0.23 93 1027.3
20240620152039 71 80 2.0 6.0 0.00 0.58 0.23 93 1027.3
20240620151527 71 94 2.0 6.0 0.00 0.58 0.23 93 1027.3
20240620151044 71 111 3.0 7.0 0.00 0.58 0.23 94 1027.3
20240620150533 71 88 5.0 9.0 0.00 0.58 0.23 94 1027.2
20240620150031 72 127 3.0 6.0 0.00 0.58 0.23 94 1027.2
20240620145516 72 132 2.0 6.0 0.00 0.58 0.23 95 1027.2
20240620145032 71 99 3.0 6.0 0.00 0.58 0.23 95 1027.2
20240620144520 71 94 3.0 6.0 0.00 0.58 0.23 95 1027.3
20240620144035 71 96 2.0 4.0 0.00 0.58 0.23 95 1027.2
20240620143518 71 80 3.0 7.0 0.00 0.58 0.23 96 1027.2
20240620143018 70 101 3.0 8.0 0.00 0.58 0.23 96 1027.2
20240620142532 70 119 2.0 6.0 0.00 0.58 0.23 96 1027.2
20240620142016 70 91 2.0 4.0 0.00 0.58 0.23 96 1027.2
20240620141540 70 39 3.0 6.0 0.00 0.58 0.23 96 1027.1
20240620141034 70 104 2.0 6.0 0.00 0.58 0.23 96 1027.2
20240620140516 69 102 2.0 7.0 0.00 0.58 0.23 96 1027.1
20240620140048 69 84 2.0 7.0 0.00 0.58 0.23 96 1027.1
20240620135527 69 81 3.0 6.0 0.00 0.58 0.23 96 1027.1
20240620135022 69 111 2.0 6.0 0.00 0.58 0.23 96 1027.1
20240620134531 69 110 2.0 5.0 0.00 0.58 0.23 96 1027.0
20240620134044 69 44 2.0 4.0 0.00 0.58 0.23 96 1027.0
20240620133516 69 42 2.0 4.0 0.00 0.58 0.23 96 1027.1
20240620133026 69 51 2.0 4.0 0.00 0.58 0.23 96 1027.0
20240620132541 68 57 2.0 4.0 0.00 0.58 0.23 96 1026.9
20240620132018 68 47 3.0 5.0 0.00 0.58 0.23 96 1027.0
20240620131535 68 69 2.0 5.0 0.00 0.58 0.23 96 1026.9
20240620131034 68 62 3.0 6.0 0.00 0.58 0.23 96 1026.9
20240620130532 68 55 3.0 6.0 0.00 0.58 0.23 96 1026.8
20240620130030 68 48 2.0 4.0 0.00 0.58 0.23 96 1026.8
20240620125555 68 54 2.0 4.0 0.01 0.58 0.23 96 1026.9
20240620125031 68 123 2.0 4.0 0.01 0.58 0.23 96 1026.9
20240620124530 67 44 2.0 5.0 0.02 0.58 0.23 96 1026.8
20240620124037 67 57 2.0 5.0 0.03 0.58 0.23 96 1026.9
20240620123553 67 55 1.0 5.0 0.03 0.58 0.23 96 1026.8
20240620123021 67 48 2.0 6.0 0.03 0.58 0.23 96 1026.8
20240620122543 67 18 4.0 7.0 0.04 0.58 0.23 96 1026.9
20240620122017 67 32 4.0 5.0 0.04 0.58 0.23 96 1026.8
20240620121528 67 32 3.0 5.0 0.04 0.58 0.23 96 1026.7
20240620121024 67 33 2.0 6.0 0.05 0.58 0.23 96 1026.8
20240620120542 67 49 2.0 6.0 0.05 0.58 0.23 96 1026.7
20240620120021 66 48 4.0 6.0 0.04 0.57 0.22 96 1026.7
20240620115553 66 80 3.0 6.0 0.04 0.57 0.22 96 1026.7
20240620115028 66 38 3.0 6.0 0.05 0.57 0.22 96 1026.8
20240620114518 66 57 2.0 4.0 0.05 0.56 0.21 95 1026.7
20240620114035 66 108 2.0 4.0 0.04 0.55 0.20 95 1026.8
20240620113533 66 37 3.0 4.0 0.04 0.55 0.20 95 1026.7
20240620113032 66 44 2.0 3.0 0.03 0.54 0.19 95 1026.7
20240620112556 66 48 2.0 3.0 0.03 0.54 0.19 95 1026.6
20240620112031 66 55 2.0 3.0 0.03 0.54 0.19 95 1026.4
20240620111528 66 44 1.0 3.0 0.03 0.54 0.19 95 1026.5
20240620111047 66 44 1.0 3.0 0.03 0.53 0.18 95 1026.5
20240620110519 66 42 1.0 4.0 0.03 0.53 0.18 95 1026.4
20240620110030 66 59 2.0 4.0 0.03 0.53 0.18 95 1026.2
20240620105526 66 98 2.0 4.0 0.03 0.53 0.18 95 1026.3
20240620105042 66 59 3.0 4.0 0.02 0.52 0.17 95 1026.3
20240620104522 66 52 2.0 4.0 0.02 0.51 0.16 95 1026.3
20240620104017 66 30 2.0 4.0 0.02 0.51 0.16 95 1026.2
20240620103530 66 30 1.0 4.0 0.02 0.51 0.16 95 1026.3
20240620103052 66 52 2.0 3.0 0.02 0.51 0.16 95 1026.2
20240620102528 66 17 0.0 3.0 0.02 0.51 0.16 95 1026.3
20240620102044 66 17 2.0 5.0 0.03 0.51 0.16 95 1026.2
20240620101522 66 24 3.0 5.0 0.03 0.51 0.16 95 1026.1
20240620101034 66 11 3.0 4.0 0.03 0.50 0.15 95 1026.0
20240620100531 66 29 2.0 4.0 0.04 0.50 0.15 95 1026.1
20240620100025 66 18 3.0 5.0 0.05 0.50 0.15 95 1026.0
20240620095522 66 12 3.0 5.0 0.06 0.50 0.15 94 1026.1
20240620095019 66 10 2.0 4.0 0.07 0.50 0.15 94 1026.1
20240620094524 66 348 2.0 4.0 0.07 0.49 0.14 94 1026.2
20240620094018 66 331 2.0 8.0 0.09 0.49 0.14 94 1026.0
20240620093516 66 10 4.0 9.0 0.10 0.49 0.14 94 1026.0
20240620093024 66 16 4.0 9.0 0.11 0.49 0.14 94 1026.1
20240620092543 66 355 4.0 9.0 0.12 0.49 0.14 94 1026.1
20240620092020 66 5 5.0 9.0 0.12 0.48 0.13 94 1026.1
20240620091517 66 11 4.0 8.0 0.12 0.48 0.13 94 1026.0
20240620091033 66 23 4.0 8.0 0.12 0.47 0.12 94 1026.0
20240620090551 66 355 3.0 6.0 0.11 0.46 0.11 94 1026.1
20240620090030 66 34 4.0 6.0 0.10 0.45 0.10 93 1026.0
20240620085526 66 11 2.0 8.0 0.09 0.44 0.09 93 1026.0
20240620085018 67 345 3.0 8.0 0.08 0.43 0.08 93 1026.0
20240620084528 67 5 4.0 8.0 0.07 0.42 0.07 93 1026.1
20240620084017 67 312 3.0 6.0 0.05 0.40 0.05 93 1026.3
20240620083533 67 308 3.0 5.0 0.04 0.39 0.04 93 1026.3
20240620083053 67 304 3.0 6.0 0.03 0.38 0.03 93 1026.3
20240620082528 68 317 4.0 7.0 0.02 0.37 0.02 92 1026.2
20240620082018 68 314 3.0 5.0 0.01 0.36 0.01 92 1026.1
20240620081530 68 332 4.0 5.0 0.01 0.36 0.01 92 1026.0
20240620081025 68 306 3.0 5.0 0.00 0.35 0.00 92 1026.0
20240620080521 68 325 3.0 5.0 0.00 0.35 0.00 92 1026.0
20240620080032 68 304 3.0 5.0 0.00 0.35 0.00 92 1026.0
20240620075524 68 323 2.0 5.0 0.00 0.35 0.00 92 1026.0
20240620075039 68 355 3.0 5.0 0.00 0.35 0.00 92 1025.8
20240620074528 68 313 2.0 5.0 0.00 0.35 0.00 92 1025.8
20240620074020 68 20 2.0 5.0 0.00 0.35 0.00 92 1025.7
20240620073516 68 332 2.0 5.0 0.00 0.35 0.00 92 1025.7
20240620073016 68 355 3.0 9.0 0.00 0.35 0.00 92 1025.6
20240620072532 68 22 4.0 9.0 0.00 0.35 0.00 92 1025.7
20240620072035 68 40 3.0 6.0 0.00 0.35 0.00 92 1025.7
20240620071524 68 42 3.0 5.0 0.00 0.35 0.00 92 1025.8
20240620071020 68 5 3.0 5.0 0.00 0.35 0.00 92 1025.8
20240620070538 68 30 3.0 6.0 0.00 0.35 0.00 92 1025.8
20240620070024 68 49 4.0 6.0 0.00 0.35 0.00 92 1025.7
20240620065520 69 63 3.0 5.0 0.00 0.35 0.00 92 1025.7
20240620065035 69 48 3.0 6.0 0.00 0.35 0.00 92 1025.8
20240620064525 69 34 4.0 6.0 0.00 0.35 0.00 92 1025.9
20240620064022 69 38 1.0 6.0 0.00 0.35 0.00 92 1025.8
20240620063519 69 340 3.0 6.0 0.00 0.35 0.00 92 1025.7
20240620063056 69 34 3.0 6.0 0.00 0.35 0.00 91 1025.7
20240620062531 69 360 3.0 5.0 0.00 0.35 0.00 91 1025.7
20240620062016 69 346 2.0 5.0 0.00 0.35 0.00 91 1025.7
20240620061546 69 5 2.0 8.0 0.00 0.35 0.00 91 1025.8
20240620061022 69 38 4.0 8.0 0.00 0.35 0.00 91 1025.7
20240620060531 69 14 4.0 8.0 0.00 0.35 0.00 91 1025.8
20240620060028 69 11 4.0 10.0 0.00 0.35 0.00 91 1025.8
20240620055524 69 355 5.0 8.0 0.00 0.35 0.00 91 1025.8
20240620055039 69 355 3.0 8.0 0.00 0.35 0.00 91 1025.8
20240620054537 69 32 3.0 8.0 0.00 0.35 0.00 91 1025.8
20240620054036 69 19 3.0 8.0 0.00 0.35 0.00 91 1025.7
20240620053533 69 46 5.0 10.0 0.00 0.35 0.00 91 1025.8
20240620053025 69 23 4.0 9.0 0.00 0.35 0.00 91 1025.9
20240620052522 70 322 3.0 9.0 0.00 0.35 0.00 91 1026.0
20240620052016 69 13 3.0 8.0 0.00 0.35 0.00 91 1026.0
20240620051531 70 16 5.0 8.0 0.00 0.35 0.00 91 1026.0
20240620051048 70 5 3.0 6.0 0.00 0.35 0.00 91 1026.0
20240620050537 70 24 3.0 6.0 0.00 0.35 0.00 92 1025.9
20240620050036 70 42 3.0 5.0 0.00 0.35 0.35 92 1026.0
20240620045531 70 26 3.0 5.0 0.00 0.35 0.35 92 1026.0
20240620045021 70 55 2.0 6.0 0.00 0.35 0.35 92 1026.0
20240620044525 70 27 3.0 6.0 0.00 0.35 0.35 92 1026.0
20240620044045 70 40 4.0 8.0 0.00 0.35 0.35 92 1026.0
20240620043520 70 5 3.0 8.0 0.00 0.35 0.35 92 1026.0
20240620043015 70 32 4.0 8.0 0.00 0.35 0.35 92 1026.0
20240620042522 70 24 4.0 8.0 0.00 0.35 0.35 92 1026.0
20240620042033 70 44 2.0 5.0 0.00 0.35 0.35 92 1026.0
20240620041534 70 11 3.0 6.0 0.00 0.35 0.35 92 1026.0
20240620041032 70 25 4.0 6.0 0.00 0.35 0.35 92 1026.0
20240620040528 70 19 2.0 5.0 0.00 0.35 0.35 92 1026.0
20240620040027 70 38 3.0 8.0 0.00 0.35 0.35 92 1025.9
20240620035523 70 19 4.0 9.0 0.00 0.35 0.35 92 1025.8
20240620035017 70 22 3.0 8.0 0.00 0.35 0.35 92 1025.7
20240620034533 70 347 3.0 8.0 0.00 0.35 0.35 92 1025.7
20240620034031 70 28 3.0 5.0 0.00 0.35 0.35 92 1025.7
20240620033526 70 28 3.0 6.0 0.00 0.35 0.35 92 1025.7
20240620033027 71 25 3.0 4.0 0.00 0.35 0.35 92 1025.6
20240620032520 71 42 2.0 3.0 0.00 0.35 0.35 92 1025.6
20240620032034 71 9 2.0 4.0 0.00 0.35 0.35 92 1025.5
20240620031532 71 9 3.0 5.0 0.00 0.35 0.35 92 1025.5
20240620031028 71 5 3.0 5.0 0.00 0.35 0.35 92 1025.5
20240620030524 71 5 2.0 6.0 0.00 0.35 0.35 92 1025.4
20240620030022 71 355 3.0 6.0 0.00 0.35 0.35 92 1025.4
20240620025520 71 345 3.0 6.0 0.00 0.35 0.35 92 1025.3
20240620025032 71 325 4.0 8.0 0.00 0.35 0.35 92 1025.4
20240620024553 71 10 3.0 5.0 0.00 0.35 0.35 91 1025.3
20240620024030 71 5 2.0 5.0 0.00 0.35 0.35 91 1025.2
20240620023543 71 360 3.0 5.0 0.00 0.35 0.35 91 1025.3
20240620023028 71 27 3.0 6.0 0.00 0.35 0.35 91 1025.3
20240620022523 71 5 3.0 6.0 0.00 0.35 0.35 91 1025.2
20240620022018 72 320 3.0 9.0 0.00 0.35 0.35 91 1025.2
20240620021525 72 333 4.0 8.0 0.00 0.35 0.35 91 1025.0
20240620021020 72 309 4.0 6.0 0.00 0.35 0.35 91 1024.9
20240620020517 72 323 3.0 5.0 0.00 0.35 0.35 92 1025.0
20240620020023 72 333 2.0 3.0 0.00 0.35 0.35 91 1024.9
20240620015520 72 360 2.0 4.0 0.00 0.35 0.35 91 1024.9
20240620015015 72 40 1.0 5.0 0.00 0.35 0.35 91 1024.9
20240620014526 73 5 2.0 5.0 0.00 0.35 0.35 91 1024.8
20240620014054 73 351 3.0 6.0 0.00 0.35 0.35 91 1024.6
20240620013522 73 5 3.0 8.0 0.00 0.35 0.35 91 1024.6
20240620013017 73 44 3.0 10.0 0.00 0.35 0.35 91 1024.6
20240620012555 73 13 5.0 10.0 0.00 0.35 0.35 91 1024.6
20240620012031 73 337 4.0 9.0 0.00 0.35 0.35 91 1024.6
20240620011552 73 5 3.0 6.0 0.00 0.35 0.35 91 1024.5
20240620011024 74 317 3.0 6.0 0.00 0.35 0.35 91 1024.5
20240620010515 74 344 4.0 8.0 0.00 0.35 0.35 91 1024.4
20240620010047 74 350 4.0 8.0 0.00 0.35 0.35 90 1024.4
20240620005541 74 14 4.0 8.0 0.00 0.35 0.35 90 1024.5
20240620005036 74 5 5.0 9.0 0.00 0.35 0.35 90 1024.4
20240620004528 74 311 4.0 9.0 0.00 0.35 0.35 90 1024.4
20240620004024 74 318 5.0 10.0 0.00 0.35 0.35 89 1024.4
20240620003541 74 336 4.0 10.0 0.00 0.35 0.35 89 1024.5
20240620003021 75 348 4.0 10.0 0.00 0.35 0.35 89 1024.6
20240620002518 75 339 5.0 10.0 0.00 0.35 0.35 88 1024.4
20240620002031 75 315 7.0 10.0 0.00 0.35 0.35 88 1024.5
20240620001541 76 20 5.0 10.0 0.00 0.35 0.35 88 1024.3
20240620001016 76 5 5.0 10.0 0.00 0.35 0.35 87 1024.1
20240620000532 76 343 5.0 11.0 0.00 0.35 0.35 87 1024.0
20240620000015 76 336 6.0 11.0 0.00 0.35 0.35 86 1023.9
20240619235522 77 340 4.0 8.0 0.00 0.35 0.35 86 1023.8
20240619235034 77 336 4.0 8.0 0.00 0.35 0.35 86 1023.8
20240619234522 77 321 4.0 9.0 0.00 0.35 0.35 85 1023.7
20240619234017 77 339 6.0 10.0 0.00 0.35 0.35 84 1023.8
20240619233535 78 313 6.0 11.0 0.00 0.35 0.35 84 1023.6
20240619233032 78 324 7.0 11.0 0.00 0.35 0.35 84 1023.7
20240619232527 78 319 9.0 11.0 0.00 0.35 0.35 84 1023.7
20240619232038 78 315 6.0 9.0 0.00 0.35 0.35 85 1023.6
20240619231529 78 306 5.0 8.0 0.00 0.35 0.35 84 1023.6
20240619231018 78 308 4.0 8.0 0.00 0.35 0.35 83 1023.6
20240619230535 78 305 4.0 6.0 0.00 0.35 0.35 82 1023.5
20240619230033 78 324 3.0 5.0 0.00 0.35 0.35 82 1023.5
20240619225521 78 331 3.0 5.0 0.00 0.35 0.35 82 1023.4
20240619225035 78 330 3.0 5.0 0.00 0.35 0.35 80 1023.4
20240619224534 79 311 3.0 4.0 0.00 0.35 0.35 80 1023.3
20240619224030 78 341 2.0 3.0 0.00 0.35 0.35 84 1023.4
20240619223516 77 5 1.0 3.0 0.00 0.35 0.35 82 1023.3
20240619223018 77 355 1.0 3.0 0.00 0.35 0.35 83 1023.3
20240619222518 77 38 2.0 4.0 0.00 0.35 0.35 86 1023.3
20240619222030 76 10 2.0 4.0 0.00 0.35 0.35 87 1023.4
20240619221533 76 25 2.0 4.0 0.00 0.35 0.35 88 1023.4
20240619221029 75 332 2.0 4.0 0.00 0.35 0.35 86 1023.4
20240619220527 75 351 2.0 9.0 0.00 0.35 0.35 87 1023.4
20240619220039 76 319 5.0 9.0 0.00 0.35 0.35 86 1023.4